Grand Junction, CO

11:10 PM MDT on September 18, 2019 (GMT -0600)
Walker

Weather History for KGJT - August, 2019

Change the Weather History Date:

Sunday, August 18, 2019

  Actual Average Record
Temperature  
Mean Temperature 80 °F 75 °F  
Max Temperature 97 °F 90 °F 99 °F (2002)
Min Temperature 63 °F 61 °F 47 °F (1978)
Degree Days  
Heating Degree Days 0 0  
Month to date heating degree days 0 0  
Since 1 June heating degree days 25 23  
Since 1 July heating degree days 0 1  
Cooling Degree Days 15 10  
Month to date cooling degree days 259 212  
Year to date cooling degree days 944 904  
Since 1 June cooling degree days 932 853  
Growing Degree Days 30 (Base 50)    
Moisture  
Dew Point 30 °F    
Average Humidity 20    
Maximum Humidity 32    
Minimum Humidity 8    
Precipitation  
Precipitation 0.00 in 0.03 in 0.26 in (1989)
Month to date precipitation 0.14 0.53  
Year to date precipitation 6.86 5.43  
Snow  
Snow 0.00 in 0.00 in 0.00 in (2018)
Month to date snowfall 0.0 0.0  
Since 1 June snowfall 0.0 0.0  
Since 1 July snowfall 0.0 0.0  
Snow Depth 0.00 in    
Sea Level Pressure  
Sea Level Pressure 29.78 in    
Wind  
Wind Speed 7 mph (ENE)    
Max Wind Speed 18 mph    
Max Gust Speed 27 mph    
Visibility 10 miles    
Events      
T = Trace of Precipitation, MM = Missing Value Source: NWS Daily Summary

Daily Weather History Graph

Daily Weather History Graph

Search for Another Location

Airport or City:

Astronomy

Aug. 18, 2019 Rise Set
Actual Time 6:29 AM MDT 8:05 PM MDT
Civil Twilight 6:01 AM MDT 8:33 PM MDT
Nautical Twilight 5:27 AM MDT 9:07 PM MDT
Astronomical Twilight 4:51 AM MDT 9:43 PM MDT
Moon 10:02 PM MDT (8/18) 9:16 AM MDT (8/18)
Length of Visible Light 14h 32m
Length of Day
13h 35m
Waning Gibbous, 91% of the Moon is Illuminated
Aug 18
Waning Gibbous
Aug 23
Last Quarter
Aug 30
New
Sep 5
First Quarter
Sep 13
Full

Hourly Weather History & Observations

Time (MDT) Temp. Dew Point Humidity Pressure Visibility Wind Dir Wind Speed Gust Speed Precip Events Conditions
12:53 AM 68.0 °F 28.0 °F 22% 29.70 in 10.0 mi East 3.5 mph - N/A   Clear
1:53 AM 68.0 °F 28.0 °F 22% 29.70 in 10.0 mi NE 3.5 mph - N/A   Clear
2:53 AM 69.1 °F 32.0 °F 25% 29.70 in 10.0 mi ESE 9.2 mph - N/A   Clear
3:53 AM 66.9 °F 30.0 °F 25% 29.72 in 10.0 mi East 4.6 mph - N/A   Clear
4:53 AM 66.0 °F 34.0 °F 30% 29.73 in 10.0 mi ESE 10.4 mph - N/A   Clear
5:53 AM 64.0 °F 33.1 °F 31% 29.76 in 10.0 mi SE 12.7 mph - N/A   Clear
6:53 AM 63.0 °F 32.0 °F 31% 29.78 in 10.0 mi East 4.6 mph - N/A   Clear
7:53 AM 68.0 °F 36.0 °F 31% 29.80 in 10.0 mi ESE 11.5 mph - N/A   Clear
8:53 AM 73.0 °F 39.0 °F 29% 29.82 in 10.0 mi SE 9.2 mph - N/A   Clear
9:53 AM 78.1 °F 36.0 °F 22% 29.83 in 10.0 mi South 4.6 mph - N/A   Clear
10:53 AM 82.9 °F 37.0 °F 19% 29.84 in 10.0 mi Variable 3.5 mph - N/A   Clear
11:53 AM 87.1 °F 32.0 °F 14% 29.83 in 10.0 mi Calm Calm - N/A   Clear
12:53 PM 90.0 °F 32.0 °F 13% 29.83 in 10.0 mi North - - N/A   Clear
12:56 PM 89.1 °F 30.9 °F 12% 30.05 in 10.0 mi NW 4.6 mph - N/A   Clear
1:53 PM 91.9 °F 34.0 °F 13% 29.81 in 10.0 mi WNW 8.1 mph - N/A   Clear
2:53 PM 93.9 °F 33.1 °F 12% 29.78 in 10.0 mi WNW 11.5 mph - N/A   Clear
3:53 PM 96.1 °F 26.1 °F 8% 29.75 in 10.0 mi North 12.7 mph 19.6 mph N/A   Clear
4:53 PM 96.1 °F 26.1 °F 8% 29.74 in 10.0 mi Variable 4.6 mph 20.7 mph N/A   Clear
5:53 PM 95.0 °F 26.1 °F 9% 29.74 in 10.0 mi NNW 13.8 mph 23.0 mph N/A   Clear
6:53 PM 93.0 °F 24.1 °F 8% 29.74 in 10.0 mi North 11.5 mph - N/A   Clear
7:53 PM 89.1 °F 24.1 °F 9% 29.74 in 10.0 mi NNW 9.2 mph - N/A   Clear
8:53 PM 81.0 °F 21.9 °F 11% 29.76 in 10.0 mi Calm Calm - N/A   Clear
9:53 PM 72.0 °F 21.0 °F 15% 29.80 in 10.0 mi Calm Calm - N/A   Clear
10:53 PM 73.0 °F 23.0 °F 15% 29.80 in 10.0 mi ENE 5.8 mph - N/A   Clear
11:53 PM 75.0 °F 24.1 °F 15% 29.79 in 10.0 mi ENE 6.9 mph - N/A   Clear